Date,TemperatureHighF,TemperatureAvgF,TemperatureLowF,DewpointHighF,DewpointAvgF,DewpointLowF,HumidityHigh,HumidityAvg,HumidityLow,PressureMaxIn,PressureMinIn,WindSpeedMaxMPH,WindSpeedAvgMPH,GustSpeedMaxMPH,PrecipitationSumIn
2013-1-1,50.6,48.8,45.1,50.0,45.8,35.0,98,90,62,30.23,30.01,3,0,7,1.25
2013-1-2,49.9,43.3,38.2,49.0,40.2,35.0,98,89,78,30.24,30.02,10,3,15,0.07
2013-1-3,44.4,38.4,34.7,37.0,32.5,27.0,93,80,61,30.41,30.22,10,2,14,0.00
2013-1-4,48.7,37.3,28.9,27.0,23.5,15.0,85,61,27,30.49,30.39,9,1,15,0.00
2013-1-5,50.1,39.4,28.3,36.0,26.2,23.0,84,62,38,30.49,30.35,5,0,7,0.00
2013-1-6,48.8,42.6,38.9,39.0,36.1,33.0,87,78,66,30.38,30.23,12,2,13,0.00
2013-1-7,57.0,43.2,31.2,34.0,30.4,28.0,88,63,35,30.47,30.34,8,2,12,0.00
2013-1-8,52.4,45.7,39.0,41.0,35.9,31.0,74,69,60,30.49,30.39,6,2,11,0.00
2013-1-9,65.7,56.6,48.8,57.0,48.9,40.0,81,75,73,30.50,30.41,4,1,7,0.00
2013-1-10,67.7,61.0,57.4,60.0,56.0,51.0,95,84,73,30.47,30.29,9,2,16,0.03
2013-1-11,68.8,62.8,59.5,64.0,61.6,58.0,98,95,82,30.28,30.17,8,2,14,0.10
2013-1-12,74.7,64.5,59.0,64.0,59.7,57.0,99,86,61,30.22,30.10,7,1,14,0.01
2013-1-13,71.4,64.5,59.5,62.0,59.8,56.0,96,85,69,30.18,30.07,6,2,21,0.01
2013-1-14,64.6,57.0,46.6,64.0,56.0,46.0,98,96,89,30.20,30.08,6,2,15,0.70
2013-1-15,63.4,54.4,47.0,63.0,54.1,47.0,99,98,96,30.19,30.03,6,0,11,0.48
2013-1-16,63.5,57.8,51.6,63.0,57.2,51.0,99,97,95,30.07,29.96,7,1,14,0.45
2013-1-17,52.0,45.0,35.7,52.0,44.1,33.0,99,96,90,30.33,29.83,19,3,21,0.73
2013-1-18,57.0,40.6,29.8,33.0,28.6,22.0,93,67,28,30.61,30.33,5,1,12,0.00
2013-1-19,57.2,41.7,29.5,31.0,27.9,26.0,87,61,32,30.55,30.31,6,1,7,0.00
2013-1-20,60.6,46.7,32.4,38.0,34.5,30.0,90,65,42,30.32,30.19,8,1,14,0.00
2013-1-21,54.7,44.7,34.7,37.0,30.5,18.0,89,60,40,30.26,30.16,13,2,18,0.00
2013-1-22,42.5,34.5,27.8,18.0,14.5,10.0,55,45,33,30.41,30.24,12,4,19,0.00
2013-1-23,54.5,40.7,28.2,38.0,24.0,14.0,65,52,39,30.50,30.28,9,2,15,0.00
2013-1-24,50.5,46.2,36.1,42.0,27.8,8.0,77,52,24,30.44,30.23,11,3,17,0.00
2013-1-25,42.3,36.7,30.7,28.0,19.8,10.0,65,51,40,30.47,30.23,8,2,15,0.00
2013-1-26,56.9,43.8,37.0,36.0,29.6,21.0,92,62,26,30.38,30.24,7,2,13,0.00
2013-1-27,52.3,44.1,38.5,34.0,31.9,27.0,78,63,51,30.55,30.36,6,2,11,0.00
2013-1-28,58.3,47.3,42.1,48.0,38.9,30.0,89,73,61,30.50,30.36,7,1,8,0.00
2013-1-29,71.0,58.4,44.3,62.0,52.8,42.0,95,83,65,30.36,30.04,10,1,14,0.04
2013-1-30,68.8,59.8,42.9,65.0,56.9,35.0,96,90,71,30.03,29.59,23,5,29,1.94
2013-1-31,46.8,39.9,32.5,35.0,25.5,22.0,84,58,40,30.25,29.88,14,5,26,0.00